Time,TemperatureF,DewpointF,PressureIn,WindDirection,WindDirectionDegrees,WindSpeedMPH,WindSpeedGustMPH,Humidity,HourlyPrecipIn,Conditions,Clouds,dailyrainin,SolarRadiationWatts/m^2,SoftwareType,DateUTC
2013-02-22 00:01:00,43.0,37.0,-100.00,NNW,333,3.0,4.0,79,0.00,,,0.26,1.000000,,2013-02-22 07:01:00,
2013-02-22 00:32:00,44.0,37.0,-100.00,West,270,3.0,5.0,76,0.00,,,0.26,1.000000,,2013-02-22 07:32:00,
2013-02-22 00:42:00,44.0,37.0,-100.00,West,270,3.0,5.0,76,0.00,,,0.26,1.000000,,2013-02-22 07:42:00,
2013-02-22 00:52:00,44.0,37.0,-100.00,West,270,3.0,5.0,76,0.00,,,0.26,1.000000,,2013-02-22 07:52:00,
2013-02-22 01:01:00,44.0,37.0,-100.00,West,270,3.0,5.0,76,0.00,,,0.26,1.000000,,2013-02-22 08:01:00,
2013-02-22 01:32:00,41.0,33.0,-100.00,NNW,328,2.0,6.0,74,0.00,,,0.26,1.000000,,2013-02-22 08:32:00,
2013-02-22 01:42:00,41.0,33.0,-100.00,NNW,328,2.0,6.0,74,0.00,,,0.26,1.000000,,2013-02-22 08:42:00,
2013-02-22 01:52:00,41.0,33.0,-100.00,NNW,328,2.0,6.0,74,0.00,,,0.26,1.000000,,2013-02-22 08:52:00,
2013-02-22 02:03:00,41.0,33.0,-100.00,NNW,328,2.0,6.0,74,0.00,,,0.26,1.000000,,2013-02-22 09:03:00,
2013-02-22 02:32:00,40.0,36.0,-100.00,NW,321,5.0,7.0,85,0.00,,,0.26,1.000000,,2013-02-22 09:32:00,
2013-02-22 02:42:00,40.0,36.0,-100.00,NW,321,5.0,7.0,85,0.00,,,0.26,1.000000,,2013-02-22 09:42:00,
2013-02-22 02:52:00,40.0,36.0,-100.00,NW,321,5.0,7.0,85,0.00,,,0.26,1.000000,,2013-02-22 09:52:00,
2013-02-22 03:01:00,40.0,36.0,-100.00,NW,321,5.0,7.0,85,0.00,,,0.26,1.000000,,2013-02-22 10:01:00,
2013-02-22 03:32:00,40.0,32.0,-100.00,North,351,3.0,8.0,74,0.00,,,0.26,1.000000,,2013-02-22 10:32:00,
2013-02-22 03:42:00,40.0,32.0,-100.00,North,351,3.0,8.0,74,0.00,,,0.26,1.000000,,2013-02-22 10:42:00,
2013-02-22 03:52:00,40.0,32.0,-100.00,North,351,3.0,8.0,74,0.00,,,0.26,1.000000,,2013-02-22 10:52:00,
2013-02-22 04:01:00,40.0,32.0,-100.00,North,351,3.0,8.0,74,0.00,,,0.26,1.000000,,2013-02-22 11:01:00,
2013-02-22 04:32:00,36.0,31.0,-100.00,ESE,119,2.0,5.0,83,0.00,,,0.26,1.000000,,2013-02-22 11:32:00,
2013-02-22 04:42:00,36.0,31.0,-100.00,ESE,119,2.0,5.0,83,0.00,,,0.26,1.000000,,2013-02-22 11:42:00,
2013-02-22 04:52:00,36.0,31.0,-100.00,ESE,119,2.0,5.0,83,0.00,,,0.26,1.000000,,2013-02-22 11:52:00,
2013-02-22 05:02:00,36.0,31.0,-100.00,ESE,119,2.0,5.0,83,0.00,,,0.26,1.000000,,2013-02-22 12:02:00,
2013-02-22 05:32:00,36.0,33.0,-100.00,SE,127,2.0,5.0,88,0.00,,,0.26,1.000000,,2013-02-22 12:32:00,
2013-02-22 05:42:00,36.0,33.0,-100.00,SE,127,2.0,5.0,88,0.00,,,0.26,1.000000,,2013-02-22 12:42:00,
2013-02-22 05:52:00,36.0,33.0,-100.00,SE,127,2.0,5.0,88,0.00,,,0.26,1.000000,,2013-02-22 12:52:00,
2013-02-22 06:01:00,36.0,33.0,-100.00,SE,127,2.0,5.0,88,0.00,,,0.26,1.000000,,2013-02-22 13:01:00,
2013-02-22 06:32:00,34.0,32.0,-100.00,ESE,111,0.0,5.0,93,0.00,,,-99.99,1.000000,,2013-02-22 13:32:00,
2013-02-22 06:42:00,34.0,32.0,-100.00,ESE,111,0.0,5.0,93,0.00,,,-99.99,1.000000,,2013-02-22 13:42:00,
2013-02-22 06:52:00,34.0,32.0,-100.00,ESE,111,0.0,5.0,93,0.00,,,-99.99,1.000000,,2013-02-22 13:52:00,
2013-02-22 07:01:00,34.0,32.0,-100.00,ESE,111,0.0,5.0,93,0.00,,,-99.99,1.000000,,2013-02-22 14:01:00,
2013-02-22 07:32:00,35.0,33.0,-100.00,NNW,346,2.0,4.0,94,0.00,,,0.26,1.000000,,2013-02-22 14:32:00,
2013-02-22 07:42:00,35.0,33.0,-100.00,NNW,346,2.0,4.0,94,0.00,,,0.26,1.000000,,2013-02-22 14:42:00,
2013-02-22 07:52:00,35.0,33.0,-100.00,NNW,346,2.0,4.0,94,0.00,,,0.26,1.000000,,2013-02-22 14:52:00,
2013-02-22 08:01:00,35.0,33.0,-100.00,NNW,346,2.0,4.0,94,0.00,,,0.26,1.000000,,2013-02-22 15:01:00,
2013-02-22 08:32:00,39.0,37.0,-100.00,NNE,33,1.0,4.0,94,0.00,,,0.26,46.000000,,2013-02-22 15:32:00,
2013-02-22 08:42:00,39.0,37.0,-100.00,NNE,33,1.0,4.0,94,0.00,,,0.26,46.000000,,2013-02-22 15:42:00,
2013-02-22 08:52:00,39.0,37.0,-100.00,NNE,33,1.0,4.0,94,0.00,,,0.26,46.000000,,2013-02-22 15:52:00,
2013-02-22 09:01:00,39.0,37.0,-100.00,NNE,33,1.0,4.0,94,0.00,,,0.26,46.000000,,2013-02-22 16:01:00,
2013-02-22 09:32:00,42.0,37.0,-100.00,SSE,159,5.0,8.0,83,0.00,,,0.26,122.000000,,2013-02-22 16:32:00,
2013-02-22 09:42:00,42.0,37.0,-100.00,SSE,159,5.0,8.0,83,0.00,,,0.26,122.000000,,2013-02-22 16:42:00,
2013-02-22 09:52:00,42.0,37.0,-100.00,SSE,159,5.0,8.0,83,0.00,,,0.26,122.000000,,2013-02-22 16:52:00,
2013-02-22 10:01:00,42.0,37.0,-100.00,SSE,159,5.0,8.0,83,0.00,,,0.26,122.000000,,2013-02-22 17:01:00,
2013-02-22 10:32:00,44.0,36.0,-100.00,South,172,3.0,7.0,74,0.00,,,0.00,210.000000,,2013-02-22 17:32:00,
2013-02-22 10:42:00,44.0,36.0,-100.00,South,172,3.0,7.0,74,0.00,,,0.00,210.000000,,2013-02-22 17:42:00,
2013-02-22 10:52:00,44.0,36.0,-100.00,South,172,3.0,7.0,74,0.00,,,0.00,210.000000,,2013-02-22 17:52:00,
2013-02-22 11:01:00,44.0,36.0,-100.00,South,172,3.0,7.0,74,0.00,,,0.00,210.000000,,2013-02-22 18:01:00,
2013-02-22 11:32:00,51.0,37.0,-100.00,SSW,207,3.0,6.0,58,0.00,,,-99.99,586.000000,,2013-02-22 18:32:00,
2013-02-22 11:42:00,51.0,37.0,-100.00,SSW,207,3.0,6.0,58,0.00,,,-99.99,586.000000,,2013-02-22 18:42:00,
2013-02-22 11:52:00,51.0,37.0,-100.00,SSW,207,3.0,6.0,58,0.00,,,-99.99,586.000000,,2013-02-22 18:52:00,
2013-02-22 12:01:00,51.0,37.0,-100.00,SSW,207,3.0,6.0,58,0.00,,,-99.99,586.000000,,2013-02-22 19:01:00,
2013-02-22 12:31:00,54.0,37.0,-100.00,SW,216,4.0,8.0,52,0.00,,,0.00,724.000000,,2013-02-22 19:31:00,
2013-02-22 12:42:00,54.0,37.0,-100.00,SW,216,4.0,8.0,52,0.00,,,0.00,724.000000,,2013-02-22 19:42:00,
2013-02-22 12:52:00,54.0,37.0,-100.00,SW,216,4.0,8.0,52,0.00,,,0.00,724.000000,,2013-02-22 19:52:00,
2013-02-22 13:01:00,54.0,37.0,-100.00,SW,216,4.0,8.0,52,0.00,,,0.00,724.000000,,2013-02-22 20:01:00,
2013-02-22 13:32:00,56.0,36.0,-100.00,WSW,253,7.0,12.0,46,0.00,,,0.00,898.000000,,2013-02-22 20:32:00,
2013-02-22 13:42:00,56.0,36.0,-100.00,WSW,253,7.0,12.0,46,0.00,,,0.00,898.000000,,2013-02-22 20:42:00,
2013-02-22 13:52:00,56.0,36.0,-100.00,WSW,253,7.0,12.0,46,0.00,,,0.00,898.000000,,2013-02-22 20:52:00,
2013-02-22 14:01:00,56.0,36.0,-100.00,WSW,253,7.0,12.0,46,0.00,,,0.00,898.000000,,2013-02-22 21:01:00,
2013-02-22 14:32:00,55.0,31.0,-100.00,West,263,9.0,14.0,39,0.00,,,0.00,754.000000,,2013-02-22 21:32:00,
2013-02-22 14:42:00,55.0,31.0,-100.00,West,263,9.0,14.0,39,0.00,,,0.00,754.000000,,2013-02-22 21:42:00,
2013-02-22 14:52:00,55.0,31.0,-100.00,West,263,9.0,14.0,39,0.00,,,0.00,754.000000,,2013-02-22 21:52:00,
2013-02-22 15:01:00,55.0,31.0,-100.00,West,263,9.0,14.0,39,0.00,,,0.00,754.000000,,2013-02-22 22:01:00,
2013-02-22 15:32:00,55.0,29.0,-100.00,West,275,13.0,19.0,37,0.00,,,0.00,686.000000,,2013-02-22 22:32:00,
2013-02-22 15:42:00,55.0,29.0,-100.00,West,275,13.0,19.0,37,0.00,,,0.00,686.000000,,2013-02-22 22:42:00,
2013-02-22 15:52:00,55.0,29.0,-100.00,West,275,13.0,19.0,37,0.00,,,0.00,686.000000,,2013-02-22 22:52:00,
2013-02-22 16:01:00,55.0,29.0,-100.00,West,275,13.0,19.0,37,0.00,,,0.00,686.000000,,2013-02-22 23:01:00,
2013-02-22 16:32:00,55.0,27.0,-100.00,West,279,12.0,20.0,34,0.00,,,0.00,524.000000,,2013-02-22 23:32:00,
2013-02-22 16:42:00,55.0,27.0,-100.00,West,279,12.0,20.0,34,0.00,,,0.00,524.000000,,2013-02-22 23:42:00,
2013-02-22 16:52:00,55.0,27.0,-100.00,West,279,12.0,20.0,34,0.00,,,0.00,524.000000,,2013-02-22 23:52:00,
2013-02-22 17:01:00,55.0,27.0,-100.00,West,279,12.0,20.0,34,0.00,,,0.00,524.000000,,2013-02-23 00:01:00,
2013-02-22 17:32:00,54.0,28.0,-100.00,West,281,11.0,19.0,36,0.00,,,0.00,320.000000,,2013-02-23 00:32:00,
2013-02-22 17:42:00,54.0,28.0,-100.00,West,281,11.0,19.0,36,0.00,,,0.00,320.000000,,2013-02-23 00:42:00,
2013-02-22 17:52:00,54.0,28.0,-100.00,West,281,11.0,19.0,36,0.00,,,0.00,320.000000,,2013-02-23 00:52:00,
2013-02-22 18:01:00,54.0,28.0,-100.00,West,281,11.0,19.0,36,0.00,,,0.00,320.000000,,2013-02-23 01:01:00,
2013-02-22 18:32:00,51.0,28.0,-100.00,WNW,282,9.0,15.0,41,0.00,,,-99.99,109.000000,,2013-02-23 01:32:00,
2013-02-22 18:42:00,51.0,28.0,-100.00,WNW,282,9.0,15.0,41,0.00,,,-99.99,109.000000,,2013-02-23 01:42:00,
2013-02-22 18:52:00,51.0,28.0,-100.00,WNW,282,9.0,15.0,41,0.00,,,-99.99,109.000000,,2013-02-23 01:52:00,
2013-02-22 19:01:00,51.0,28.0,-100.00,WNW,282,9.0,15.0,41,0.00,,,-99.99,109.000000,,2013-02-23 02:01:00,
2013-02-22 19:32:00,48.0,25.0,-100.00,West,275,6.0,12.0,41,0.00,,,0.00,2.000000,,2013-02-23 02:32:00,
2013-02-22 19:42:00,48.0,25.0,-100.00,West,275,6.0,12.0,41,0.00,,,0.00,2.000000,,2013-02-23 02:42:00,
2013-02-22 19:52:00,48.0,25.0,-100.00,West,275,6.0,12.0,41,0.00,,,0.00,2.000000,,2013-02-23 02:52:00,
2013-02-22 20:01:00,48.0,25.0,-100.00,West,275,6.0,12.0,41,0.00,,,0.00,2.000000,,2013-02-23 03:01:00,
2013-02-22 20:32:00,44.0,28.0,-100.00,ENE,71,3.0,9.0,52,0.00,,,-99.99,1.000000,,2013-02-23 03:32:00,
2013-02-22 20:42:00,44.0,28.0,-100.00,ENE,71,3.0,9.0,52,0.00,,,-99.99,1.000000,,2013-02-23 03:42:00,
2013-02-22 20:52:00,44.0,28.0,-100.00,ENE,71,3.0,9.0,52,0.00,,,-99.99,1.000000,,2013-02-23 03:52:00,
2013-02-22 21:01:00,44.0,28.0,-100.00,ENE,71,3.0,9.0,52,0.00,,,-99.99,1.000000,,2013-02-23 04:01:00,
2013-02-22 21:32:00,41.0,29.0,-100.00,NW,310,3.0,4.0,63,0.00,,,0.00,1.000000,,2013-02-23 04:32:00,
2013-02-22 21:42:00,41.0,29.0,-100.00,NW,310,3.0,4.0,63,0.00,,,0.00,1.000000,,2013-02-23 04:42:00,
2013-02-22 21:52:00,41.0,29.0,-100.00,NW,310,3.0,4.0,63,0.00,,,0.00,1.000000,,2013-02-23 04:52:00,
2013-02-22 22:02:00,41.0,29.0,-100.00,NW,310,3.0,4.0,63,0.00,,,0.00,1.000000,,2013-02-23 05:02:00,
2013-02-22 22:33:00,39.0,31.0,-100.00,WSW,240,1.0,5.0,74,0.00,,,0.00,1.000000,,2013-02-23 05:33:00,
2013-02-22 22:42:00,39.0,31.0,-100.00,WSW,240,1.0,5.0,74,0.00,,,0.00,1.000000,,2013-02-23 05:42:00,
2013-02-22 22:52:00,39.0,31.0,-100.00,WSW,240,1.0,5.0,74,0.00,,,0.00,1.000000,,2013-02-23 05:52:00,
2013-02-22 23:01:00,39.0,31.0,-100.00,WSW,240,1.0,5.0,74,0.00,,,0.00,1.000000,,2013-02-23 06:01:00,
2013-02-22 23:32:00,38.0,29.0,-100.00,NE,38,2.0,5.0,69,0.00,,,0.00,1.000000,,2013-02-23 06:32:00,
2013-02-22 23:42:00,38.0,29.0,-100.00,NE,38,2.0,5.0,69,0.00,,,0.00,1.000000,,2013-02-23 06:42:00,
2013-02-22 23:52:00,38.0,29.0,-100.00,NE,38,2.0,5.0,69,0.00,,,0.00,1.000000,,2013-02-23 06:52:00,